Tracking 19219 objects as of 19-Jul-2018
HD Live streaming from Space Station
objects crossing your sky now

FENGYUN 1C DEB

Track FENGYUN 1C DEB now!
10-day predictions


NORAD ID: 35242
Int'l Code: 1999-025DRA
Perigee: 855.9 km
Apogee: 1,330.3 km
Inclination: 100.1 °
Period: 107.0 minutes
Semi major axis: 7464 km
RCS: 0.0022 m2 (small)
Launch date: May 10, 1999
Source: People's Republic of China (PRC)
Launch site: Taiyaun Space Center, China (TSC)

Note: This is SATELLITE DEBRIS
aabbcc
Your satellite tracking list
Your tracking list is empty




NASA's NSSDC Master Catalog

Two Line Element Set (TLE):
1 35242U 99025DRA 18199.96025431 -.00000040 +00000-0 +98927-5 0  9994
2 35242 100.0907 199.1975 0317785 332.8883 053.0092 13.46272926216945
Source of the keplerian elements: AFSPC